TimeCDT,TemperatureF,Dew PointF,Humidity,Sea Level PressureIn,VisibilityMPH,Wind Direction,Wind SpeedMPH,Gust SpeedMPH,PrecipitationIn,Events,Conditions,WindDirDegrees,DateUTC
12:53 AM,19.0,9.0,65,30.17,10.0,WNW,8.1,-,N/A,,Clear,290,2013-03-17 05:53:00
1:53 AM,19.0,9.0,65,30.19,10.0,WNW,8.1,-,N/A,,Clear,300,2013-03-17 06:53:00
2:53 AM,19.0,7.0,59,30.20,10.0,NNW,11.5,-,N/A,,Clear,330,2013-03-17 07:53:00
3:53 AM,16.0,6.1,65,30.22,10.0,North,6.9,-,N/A,,Clear,350,2013-03-17 08:53:00
5:53 AM,15.1,3.9,61,30.25,10.0,NE,12.7,-,N/A,,Clear,40,2013-03-17 10:53:00
6:53 AM,12.9,1.9,62,30.26,10.0,NE,9.2,-,N/A,,Clear,40,2013-03-17 11:53:00
7:53 AM,12.0,1.9,64,30.28,10.0,NE,8.1,-,N/A,,Clear,50,2013-03-17 12:53:00
8:53 AM,14.0,1.9,59,30.32,10.0,NE,11.5,-,N/A,,Clear,40,2013-03-17 13:53:00
9:53 AM,15.1,1.0,54,30.33,10.0,NNE,10.4,-,N/A,,Clear,30,2013-03-17 14:53:00
10:53 AM,16.0,1.0,52,30.33,10.0,NNE,9.2,-,N/A,,Clear,30,2013-03-17 15:53:00
11:53 AM,18.0,3.9,54,30.32,10.0,NNE,11.5,-,N/A,,Clear,20,2013-03-17 16:53:00
12:53 PM,21.0,9.0,60,30.28,10.0,NNE,9.2,-,N/A,,Clear,30,2013-03-17 17:53:00
1:53 PM,26.1,12.0,55,30.25,10.0,East,8.1,-,N/A,,Clear,90,2013-03-17 18:53:00
2:53 PM,26.1,12.0,55,30.22,10.0,ESE,12.7,-,N/A,,Clear,120,2013-03-17 19:53:00
3:53 PM,27.0,12.9,56,30.21,10.0,East,9.2,-,N/A,,Clear,90,2013-03-17 20:53:00
4:53 PM,27.0,12.9,56,30.20,10.0,East,10.4,-,N/A,,Partly Cloudy,90,2013-03-17 21:53:00
5:53 PM,25.0,12.0,58,30.18,10.0,East,12.7,-,N/A,,Clear,100,2013-03-17 22:53:00
6:53 PM,23.0,10.9,60,30.17,10.0,ESE,9.2,-,N/A,,Clear,110,2013-03-17 23:53:00
7:53 PM,21.9,10.9,63,30.17,10.0,East,5.8,-,N/A,,Clear,100,2013-03-18 00:53:00
8:53 PM,21.0,10.9,65,30.15,10.0,East,6.9,-,N/A,,Clear,90,2013-03-18 01:53:00
9:53 PM,19.9,10.9,68,30.14,10.0,ENE,5.8,-,N/A,,Clear,70,2013-03-18 02:53:00
10:53 PM,17.1,10.0,74,30.12,10.0,NNE,5.8,-,N/A,,Clear,30,2013-03-18 03:53:00
11:53 PM,17.1,10.0,74,30.07,10.0,NE,4.6,-,N/A,,Clear,50,2013-03-18 04:53:00